GW1009 Weather Reports


time (UTC)temp
F
wind
direction
speed
knots
gust
knots
rain 1hr
in
rain 24hr
in
rain mn
in
humidity
%
barometer
mb
20260503041100 32 360 0.0 0.0 0.00 0.00 0.00 78 1012.3
20260503040558 32 360 0.0 0.0 0.00 0.00 0.00 77 1012.4
20260503040057 32 360 0.0 0.9 0.00 0.00 0.00 77 1012.4
20260503035558 33 360 0.0 0.9 0.00 0.00 0.00 77 1012.5
20260503035059 33 360 0.0 0.9 0.00 0.00 0.00 76 1012.5
20260503034557 33 360 0.0 2.6 0.00 0.00 0.00 76 1012.5
20260503034057 33 360 0.9 2.6 0.00 0.00 0.00 76 1012.5
20260503033556 33 360 0.0 2.6 0.00 0.00 0.00 75 1012.5
20260503033100 33 360 0.0 3.5 0.00 0.00 0.00 75 1012.5
20260503032600 33 360 0.0 3.5 0.00 0.00 0.00 74 1012.5
20260503032056 33 360 0.9 4.3 0.00 0.00 0.00 74 1012.5
20260503031555 33 360 0.9 4.3 0.00 0.00 0.00 73 1012.4
20260503031054 34 360 0.9 4.3 0.00 0.00 0.00 73 1012.4
20260503030552 34 360 0.0 4.3 0.00 0.00 0.00 73 1012.4
20260503030053 34 360 0.9 5.2 0.00 0.00 0.00 72 1012.5
20260503025552 34 360 1.7 7.8 0.00 0.00 0.00 72 1012.4
20260503025052 34 360 2.6 7.8 0.00 0.00 0.00 72 1012.4
20260503024601 34 360 1.7 3.5 0.00 0.00 0.00 71 1012.4
20260503024052 34 360 0.9 4.3 0.00 0.00 0.00 71 1012.4
20260503023551 34 360 0.9 4.3 0.00 0.00 0.00 71 1012.4
20260503023052 34 360 1.7 4.3 0.00 0.00 0.00 71 1012.4
20260503022551 34 360 2.6 4.3 0.00 0.00 0.00 71 1012.3
20260503022050 34 360 0.9 2.6 0.00 0.00 0.00 70 1012.4
20260503021557 34 360 0.0 1.7 0.00 0.00 0.00 69 1012.4
20260503021053 35 360 0.0 2.6 0.00 0.00 0.00 69 1012.4
20260503020549 35 360 0.0 3.5 0.00 0.00 0.00 69 1012.4
20260503020056 35 360 0.9 3.5 0.00 0.00 0.00 68 1012.4
20260503015548 35 360 0.9 4.3 0.00 0.00 0.00 67 1012.3
20260503015047 35 360 0.9 5.2 0.00 0.00 0.00 67 1012.3
20260503014619 35 360 1.7 5.2 0.00 0.00 0.00 66 1012.2
20260503014047 36 360 2.6 5.2 0.00 0.00 0.00 66 1012.3
20260503013546 36 360 1.7 5.2 0.00 0.00 0.00 70 1012.4
20260503013046 36 360 1.7 5.2 0.00 0.00 0.00 65 1012.3
20260503012548 36 360 1.7 3.5 0.00 0.00 0.00 65 1012.3
20260503012047 36 360 0.9 4.3 0.00 0.00 0.00 64 1012.3
20260503011555 36 360 1.7 4.3 0.00 0.00 0.00 63 1012.2
20260503011044 36 360 0.9 4.3 0.00 0.00 0.00 63 1012.2
20260503010544 36 360 0.9 4.3 0.00 0.00 0.00 63 1012.1
20260503010052 36 360 0.9 4.3 0.00 0.00 0.00 63 1012.1
20260503005545 37 360 0.0 3.5 0.00 0.00 0.00 62 1012.1
20260503005046 37 360 0.0 3.5 0.00 0.00 0.00 62 1012.0
20260503004557 37 360 0.9 4.3 0.00 0.00 0.00 61 1012.0
20260503004044 37 360 1.7 4.3 0.00 0.00 0.00 61 1011.9
20260503003543 37 360 1.7 4.3 0.00 0.00 0.00 60 1012.0
20260503003043 37 360 0.9 5.2 0.00 0.00 0.00 60 1012.0
20260503002544 38 360 2.6 7.0 0.00 0.00 0.00 60 1012.0
20260503002043 38 360 2.6 7.8 0.00 0.00 0.00 59 1011.9
20260503001550 38 360 3.5 7.8 0.00 0.00 0.00 59 1011.9
20260503001044 38 360 0.0 7.8 0.00 0.00 0.00 60 1011.9
20260503000542 38 360 2.6 7.8 0.00 0.00 0.00 60 1011.9
20260503000044 38 360 1.7 5.2 0.00 0.00 0.00 61 1011.9
20260502235541 39 360 1.7 5.2 0.00 0.00 0.00 61 1011.8
20260502235041 39 360 1.7 8.7 0.00 0.00 0.00 61 1011.7
20260502234545 39 360 1.7 8.7 0.00 0.00 0.00 61 1011.7
20260502234045 39 360 2.6 7.8 0.00 0.00 0.00 61 1011.7
20260502233541 39 360 2.6 7.8 0.00 0.00 0.00 60 1011.7
20260502233045 39 360 3.5 7.8 0.00 0.00 0.00 60 1011.6
20260502232541 40 360 2.6 7.0 0.00 0.00 0.00 60 1011.5
20260502232041 40 360 0.9 8.7 0.00 0.00 0.00 60 1011.5
20260502231542 40 360 2.6 12.2 0.00 0.00 0.00 61 1011.5
20260502231041 39 360 2.6 12.2 0.00 0.00 0.00 60 1011.4
20260502230541 39 360 4.3 9.6 0.00 0.00 0.00 61 1011.4
20260502230040 39 360 5.2 10.4 0.00 0.00 0.00 62 1011.4
20260502225540 40 309 6.1 12.2 0.00 0.00 0.00 62 1011.5
20260502225042 40 360 6.1 12.2 0.00 0.00 0.00 61 1011.4
20260502224540 40 360 3.5 10.4 0.00 0.00 0.00 62 1011.4
20260502224040 40 360 4.3 10.4 0.00 0.00 0.00 62 1011.5
20260502223540 40 360 6.1 10.4 0.00 0.00 0.00 61 1011.5
20260502223042 40 360 4.3 10.4 0.00 0.00 0.00 60 1011.4
20260502222540 40 360 5.2 8.7 0.00 0.00 0.00 60 1011.4
20260502222039 41 360 2.6 13.0 0.00 0.00 0.00 59 1011.3
20260502221539 41 360 8.7 13.0 0.00 0.00 0.00 59 1011.4
20260502221039 41 360 7.8 12.2 0.00 0.00 0.00 58 1011.4
20260502220640 41 360 6.1 13.0 0.00 0.00 0.00 58 1011.4
20260502220039 41 360 8.7 13.0 0.00 0.00 0.00 58 1011.4
20260502215541 42 360 7.8 13.0 0.00 0.00 0.00 58 1011.4
20260502215042 42 360 3.5 11.3 0.00 0.00 0.00 57 1011.3
20260502214538 42 360 4.3 13.9 0.00 0.00 0.00 58 1011.4
20260502214038 41 360 9.6 13.9 0.00 0.00 0.00 57 1011.4
20260502213537 41 360 7.8 12.2 0.00 0.00 0.00 57 1011.4
20260502213037 41 360 6.1 13.9 0.00 0.00 0.00 56 1011.3
20260502212538 41 360 9.6 14.8 0.00 0.00 0.00 56 1011.3
20260502212038 41 360 7.0 14.8 0.00 0.00 0.00 56 1011.3
20260502211545 41 360 7.8 14.8 0.00 0.00 0.00 57 1011.3
20260502211037 42 360 7.0 12.2 0.00 0.00 0.00 57 1011.2
20260502210538 42 360 7.0 12.2 0.00 0.00 0.00 57 1011.3
20260502210040 42 360 8.7 11.3 0.00 0.00 0.00 57 1011.2
20260502205536 42 360 5.2 10.4 0.00 0.00 0.00 58 1011.3
20260502205036 42 360 7.0 10.4 0.00 0.00 0.00 57 1011.2
20260502204537 42 360 5.2 9.6 0.00 0.00 0.00 55 1011.3
20260502204039 42 360 5.2 8.7 0.00 0.00 0.00 56 1011.3
20260502203537 42 360 3.5 11.3 0.00 0.00 0.00 55 1011.3
20260502203036 42 360 6.1 11.3 0.00 0.00 0.00 56 1011.3
20260502202536 42 360 2.6 11.3 0.00 0.00 0.00 51 1011.4
20260502202036 42 360 7.0 15.6 0.00 0.00 0.00 53 1011.3
20260502201536 42 360 9.6 15.6 0.00 0.00 0.00 53 1011.4
20260502201038 42 360 5.2 15.6 0.00 0.00 0.00 52 1011.4
20260502200535 42 360 9.6 15.6 0.00 0.00 0.00 51 1011.5
20260502200035 43 360 3.5 12.2 0.00 0.00 0.00 52 1011.5
20260502195534 43 360 7.0 12.2 0.00 0.00 0.00 52 1011.5
20260502195035 43 360 6.1 10.4 0.00 0.00 0.00 53 1011.5
20260502194537 43 360 5.2 12.2 0.00 0.00 0.00 56 1011.7
20260502194035 43 360 7.0 13.0 0.00 0.00 0.00 56 1011.8
20260502193545 44 360 5.2 13.0 0.00 0.00 0.00 54 1011.7
20260502193035 45 360 7.8 11.3 0.00 0.00 0.00 53 1011.7
20260502192533 44 360 1.7 12.2 0.00 0.00 0.00 52 1011.8
20260502192032 43 360 5.2 13.0 0.00 0.00 0.00 52 1011.7
20260502191532 43 360 6.1 13.0 0.00 0.00 0.00 54 1011.7
20260502191033 43 360 7.8 13.0 0.00 0.00 0.00 53 1011.8
20260502190532 43 360 4.3 11.3 0.00 0.00 0.00 58 1011.9
20260502190038 42 360 6.1 13.0 0.00 0.00 0.00 53 1011.8
20260502185531 42 360 4.3 13.0 0.00 0.00 0.00 54 1011.9
20260502185033 42 360 5.2 12.2 0.00 0.00 0.00 53 1011.9
20260502184547 42 360 4.3 13.9 0.00 0.00 0.00 54 1011.9
20260502184031 42 360 7.8 13.9 0.00 0.00 0.00 54 1011.9
20260502183531 42 360 6.1 12.2 0.00 0.00 0.00 52 1011.9
20260502183047 42 360 7.0 12.2 0.00 0.00 0.00 54 1011.9
20260502182531 42 360 7.0 12.2 0.00 0.00 0.00 54 1011.9
20260502182030 43 360 8.7 17.4 0.00 0.00 0.00 53 1011.8
20260502181539 44 360 12.2 17.4 0.00 0.00 0.00 51 1011.8
20260502181029 43 360 9.6 14.8 0.00 0.00 0.00 55 1011.8
20260502180529 42 360 4.3 11.3 0.00 0.00 0.00 57 1011.9
20260502164026 41 360 11.3 16.5 0.00 0.00 0.00 60 1011.9
20260502163528 41 360 8.7 13.9 0.00 0.00 0.00 58 1011.9
20260502163037 41 360 10.4 15.6 0.00 0.00 0.00 57 1011.8
20260502162525 42 360 11.3 15.6 0.00 0.00 0.00 52 1011.8
20260502162029 43 360 5.2 13.9 0.00 0.00 0.00 53 1011.9
20260502161526 43 360 3.5 12.2 0.00 0.00 0.00 58 1011.9
20260502161023 43 360 5.2 13.0 0.00 0.00 0.00 56 1012.0
20260502160525 42 360 3.5 16.5 0.00 0.00 0.00 59 1011.9
20260502152013 40 360 6.1 13.9 0.00 0.00 0.00 69 1012.2
20260502151619 40 360 7.0 16.5 0.00 0.00 0.00 68 1012.2
20260502151012 40 360 3.5 15.6 0.00 0.00 0.00 71 1012.1
20260502150511 40 360 10.4 15.6 0.00 0.00 0.00 71 1012.1
20260502130552 39 360 7.0 12.2 0.00 0.00 0.00 84 1011.8
20260502123548 38 360 6.1 10.4 0.00 0.00 0.00 86 1011.8
20260502123046 38 360 5.2 9.6 0.00 0.00 0.00 86 1011.9
20260502122546 38 360 4.3 7.8 0.00 0.00 0.00 87 1011.9
20260502122044 38 360 2.6 9.6 0.00 0.00 0.00 87 1011.9
20260502121544 37 360 3.5 12.2 0.00 0.00 0.00 87 1011.9
20260502121046 38 360 2.6 9.6 0.00 0.00 0.00 87 1011.8
20260502120543 37 360 5.2 9.6 0.00 0.00 0.00 87 1011.8
20260502115545 37 360 6.1 11.3 0.00 0.00 0.00 88 1011.8
20260502115042 37 360 3.5 9.6 0.00 0.00 0.00 89 1011.8
20260502114554 37 360 3.5 9.6 0.00 0.00 0.00 90 1012.0
20260502114041 37 360 4.3 8.7 0.00 0.00 0.00 90 1012.0
20260502113543 37 360 4.3 9.6 0.00 0.00 0.00 90 1011.9
20260502113043 37 360 3.5 9.6 0.00 0.00 0.00 91 1011.9
20260502112539 37 360 0.9 5.2 0.00 0.00 0.00 91 1011.9
20260502112038 37 360 0.9 4.3 0.00 0.00 0.00 91 1011.8
20260502111538 37 360 0.0 4.3 0.00 0.00 0.00 91 1011.7
20260502111039 37 360 1.7 4.3 0.00 0.00 0.00 91 1011.7
20260502110537 37 360 0.0 2.6 0.00 0.00 0.00 91 1011.7
20260502110039 37 360 0.0 2.6 0.00 0.00 0.00 91 1011.6
20260502105538 37 360 0.0 0.9 0.00 0.00 0.00 91 1011.7
20260502105035 37 360 0.0 1.7 0.00 0.00 0.00 91 1011.5
20260502104547 37 360 0.0 3.5 0.00 0.00 0.00 91 1011.6
20260502104035 36 360 1.7 3.5 0.00 0.00 0.00 91 1011.6
20260502103535 36 360 0.0 3.5 0.00 0.00 0.00 91 1011.5
20260502103036 36 360 1.7 3.5 0.00 0.00 0.00 91 1011.5
20260502102533 36 360 0.0 2.6 0.00 0.00 0.00 91 1011.4
20260502102033 36 360 0.0 4.3 0.00 0.00 0.00 91 1011.3
20260502101547 36 360 0.9 4.3 0.00 0.00 0.00 91 1011.3
20260502101032 36 360 0.9 3.5 0.00 0.00 0.00 91 1011.3
20260502100531 36 360 1.7 3.5 0.00 0.00 0.00 91 1011.1
20260502091527 36 360 1.7 7.0 0.00 0.00 0.00 91 1010.8
20260502091026 36 360 0.9 5.2 0.00 0.00 0.00 91 1010.7
20260502090526 36 360 2.6 7.8 0.00 0.00 0.00 91 1010.7
20260502071518 37 360 0.9 5.2 0.00 0.00 0.00 91 1010.7
20260502071021 37 360 1.7 5.2 0.00 0.00 0.00 91 1010.6
20260502070518 37 360 3.5 5.2 0.00 0.00 0.00 91 1010.5
20260502070022 36 360 1.7 4.3 0.00 0.00 0.00 91 1010.5
20260502065517 36 360 2.6 7.0 0.00 0.00 0.00 91 1010.5
20260502065017 36 360 2.6 7.0 0.00 0.00 0.00 91 1010.4
20260502064517 36 360 1.7 5.2 0.00 0.00 0.00 91 1010.5
20260502064015 36 360 2.6 7.0 0.00 0.00 0.00 91 1010.4
20260502063514 36 360 2.6 4.3 0.00 0.00 0.00 91 1010.3
20260502063016 37 360 1.7 5.2 0.00 0.00 0.00 91 1010.5
20260502062514 37 360 1.7 5.2 0.00 0.00 0.00 91 1010.6
20260502062013 37 360 2.6 7.8 0.00 0.00 0.00 91 1010.7
20260502061513 37 360 5.2 7.8 0.00 0.00 0.00 91 1010.4
20260502061011 37 360 3.5 5.2 0.00 0.00 0.00 91 1010.4
20260502060511 37 360 2.6 5.2 0.00 0.00 0.00 91 1010.5
20260502060013 37 360 2.6 5.2 0.00 0.00 0.00 91 1010.6
20260502055509 37 360 3.5 5.2 0.00 0.00 0.00 91 1010.6
20260502055009 37 360 2.6 8.7 0.00 0.00 0.00 91 1010.7
20260502054508 37 360 4.3 8.7 0.00 0.00 0.00 91 1010.7
20260502054006 37 360 4.3 8.7 0.00 0.00 0.00 91 1010.8
20260502053510 37 360 3.5 8.7 0.00 0.00 0.00 91 1010.9
20260502053005 37 360 4.3 7.8 0.00 0.00 0.00 91 1010.9
20260502052504 37 360 2.6 7.0 0.00 0.00 0.00 91 1010.9
20260502052004 37 360 2.6 7.0 0.00 0.00 0.00 91 1010.7
20260502051505 37 360 2.6 7.0 0.00 0.00 0.00 91 1010.7
20260502051002 37 360 1.7 7.0 0.00 0.00 0.00 91 1010.6
20260502050502 37 360 1.7 3.5 0.00 0.00 0.00 91 1010.6
20260502050007 37 360 1.7 5.2 0.00 0.00 0.00 91 1010.6
20260502045600 37 360 3.5 5.2 0.00 0.00 0.00 90 1010.5
20260502045059 38 360 3.5 5.2 0.00 0.00 0.00 90 1010.6
20260502044600 38 360 2.6 5.2 0.00 0.00 0.00 90 1010.6
20260502044059 38 360 1.7 4.3 0.00 0.00 0.00 90 1010.6
20260502043558 38 360 1.7 4.3 0.00 0.00 0.00 90 1010.6
20260502043104 38 360 3.5 5.2 0.00 0.00 0.00 90 1010.5
20260502042556 38 360 2.6 5.2 0.00 0.00 0.00 90 1010.6
20260502042054 38 360 3.5 5.2 0.00 0.00 0.00 90 1010.5
20260502041555 38 360 2.6 5.2 0.00 0.00 0.00 89 1010.4